Regional Weather Roundup
Issued by NWS

Home | Current Version | Previous Version | Graphics & Text | Print | Product List | Glossary On
Versions: 1 2 3 4 5 6 7 8 9 10 11 12 13 14 15 16 17 18 19 20 21 22 23 24 25 26 27 28 29 30 31 32 33 34 35 36 37 38
000
ASUS43 KMKX 231621
RWRWI

WISCONSIN REGIONAL WEATHER ROUNDUP
NATIONAL WEATHER SERVICE MILWAUKEE/SULLIVAN WI
1100 AM CDT TUE AUG 23 2016

NOTE: "FAIR" INDICATES FEW OR NO CLOUDS BELOW 12,000 FEET WITH NO
SIGNIFICANT WEATHER AND/OR OBSTRUCTIONS TO VISIBILITY.

WIZ001-002-006>008-014>016-023>028-231700-
NORTHWEST WISCONSIN

CITY           SKY/WX    TMP DP  RH WIND       PRES   REMARKS
SUPERIOR ARPT  PTSUNNY   78  65  64 SW13G18   29.90S
ASHLAND        SUNNY     78  64  61 S16G22    29.94S HX  80
HAYWARD        SUNNY     75  62  64 S17       29.97F
SIREN          SUNNY     77  61  58 S10       29.94S
CUMBERLAND     SUNNY     73  61  64 S16       29.98F
RICE LAKE      SUNNY     75  63  65 S12G18    30.01S
CHETEK         NOT AVBL
LADYSMITH      SUNNY     75  63  66 S10G20    30.03F
EAU CLAIRE     SUNNY     77  62  59 S13       30.01S
MENOMONIE      SUNNY     78  63  60 S17G25    30.00S HX  80
NEW RICHMOND   SUNNY     77  62  59 S16G22    29.97S
OSCEOLA        SUNNY     77  64  63 S13       29.97F
$$

WIZ003>005-009-010-017-018-231700-
NORTH CENTRAL WISCONSIN

CITY           SKY/WX    TMP DP  RH WIND       PRES   REMARKS
MANITOWISH WTR NOT AVBL
ARBOR VITAE    SUNNY     77  66  68 S10G18    30.06S
WOODRUFF       SUNNY     77  66  68 S10G18    30.06S
RHINELANDER    SUNNY     74  63  68 S10       30.09S
EAGLE RIVER    SUNNY     74  59  60 SW9       30.06F
LAND O LAKES   SUNNY     74  61  63 SW8G16    30.06F
PHILLIPS       SUNNY     74  64  70 SW13      30.03F
TOMAHAWK       SUNNY     74  62  66 S5        30.07F
MEDFORD        SUNNY     73  63  72 S12       30.07F
MERRILL        SUNNY     74  63  67 SW9G18    30.08F
$$

WIZ029-030-035-036-043>047-231700-
CENTRAL WISCONSIN

CITY           SKY/WX    TMP DP  RH WIND       PRES   REMARKS
WAUSAU         SUNNY     74  61  63 S14       30.08F
MOSINEE        SUNNY     73  63  68 S13       30.11F
MARSHFIELD     SUNNY     77  62  59 S10       30.08F
STEVENS POINT  SUNNY     75  61  62 SW10G16   30.11F
WAUPACA        SUNNY     78  63  58 S10       30.13S HX  80
WAUTOMA        SUNNY     77  63  61 SW10      30.13F
WISC RAPIDS    SUNNY     76  63  64 S12       30.11F
CAMP DOUGLAS   MOSUNNY   75  64  69 S9        30.10F
$$

WIZ011>013-019>022-031-037>040-048>050-231700-
NORTHEAST WISCONSIN

CITY           SKY/WX    TMP DP  RH WIND       PRES   REMARKS
ANTIGO         SUNNY     74  63  66 S14       30.11S
SHAWANO        SUNNY     77  63  61 S8        30.12S
OCONTO         NOT AVBL
STURGEON BAY   SUNNY     77  62  59 SW16      30.13S
GREEN BAY      SUNNY     76  64  66 S10G18    30.13S
MANITOWOC      SUNNY     76  61  59 S13G18    30.16S
APPLETON       MOSUNNY   75  57  53 SW16      30.13F
CLINTONVILLE   SUNNY     77  59  53 SW10G16   30.11F
OSHKOSH        SUNNY     76  61  59 SW14      30.14S
$$

WIZ032>034-041-042-053>061-231700-
SOUTHWEST WISCONSIN

CITY           SKY/WX    TMP DP  RH WIND       PRES   REMARKS
LA CROSSE      PTSUNNY   78  69  73 S13       30.06S HX  80
SPARTA         MOSUNNY   76  62  63 S8G17     30.09S
VIROQUA        PTSUNNY   75  63  66 S8        30.11S
BOSCOBEL       MOSUNNY   78  62  57 S8G21     30.11F HX  80
PRAIRIE DU CHI MOSUNNY   77  62  59 SE5       30.09F
PLATTEVILLE    SUNNY     74  66  76 S13       30.15S
$$

WIZ056-057-062-063-064-067-068-231700-
SOUTH CENTRAL WISCONSIN

CITY           SKY/WX    TMP DP  RH WIND       PRES   REMARKS
REEDSBURG      NOT AVBL
BARABOO/DELLS  SUNNY     75  61  61 S13       30.13F
LONE ROCK      MOSUNNY   76  63  64 S12       30.13F
MINERAL POINT  SUNNY     77  64  65 S13G18    30.16S
MADISON        PTSUNNY   76  63  64 S9        30.15S
MIDDLETON      SUNNY     77  64  63 S10       30.16S
WATERTOWN      SUNNY     76  64  65 SW9       30.17S
MONROE         SUNNY     73  63  68 S13       30.16F
JANESVILLE     MOSUNNY   77  63  61 S14       30.17F
$$

WIZ051-052-058>065-066-070>072-231700-
SOUTHEAST WISCONSIN

CITY           SKY/WX    TMP DP  RH WIND       PRES   REMARKS
MILWAUKEE      MOSUNNY   80  60  50 SW15      30.18F HX  81
WAUKESHA       SUNNY     75  61  60 S12       30.20S
MILWAUKEE/TIMM SUNNY     75  55  50 SW14      30.19F
RACINE         SUNNY     79  59  50 S12       30.21S HX  80
BURLINGTON     SUNNY     77  60  55 SW12G18   30.19S
KENOSHA        MOSUNNY   78  60  53 SW12G23   30.20F
FOND DU LAC    SUNNY     76  62  62 S13       30.16S
SHEBOYGAN      SUNNY     78  60  53 SW12      30.17S
WEST BEND      SUNNY     77  59  53 S12       30.18S
JUNEAU         SUNNY     75  63  66 S12       30.18F
$$

LSZ147-162-231700-
LAKE SUPERIOR

STATION/POSITION TIME  TEMP    WIND        PRES    WAVE
                       AIR SEA DIR/SP/G            HT/PER
                 (UTC) (F)     (DEG/KT/KT) (MB)    (FT/S)
W MID LAKE BUOY  1550   69 66  200/  8/ 10 1013.1S   2/ 5
DEVILS ISLAND    1600   74     190/  5/  6 1012.7F
SAXON HARBOR     1500   76     200/ 14/ 20 1013.5S
$$

LMZ867-665-643>646-231700-
LAKE MICHIGAN

STATION/POSITION TIME  TEMP    WIND        PRES    WAVE
                       AIR SEA DIR/SP/G            HT/PER
                 (UTC) (F)     (DEG/KT/KT) (MB)    (FT/S)
CHAMBERS ISLAND  1540   73     190/  7/ 17 1019.6S
S GREEN BAY BUOY 1600   73 73  200/ 16/ 19 1019.4R
N MID LAKE BUOY  1550   71 71  210/ 19/ 21 1018.9R   5/ 6
NORTHPORT PIER   1500   75     200/  4/ 11 1019.3S
SISTER BAY       1522   77     240/ 14/ 17   N/A
KEWAUNEE LAKESHO 1500   64     180/ 10/ 11 1020.3S
SHEBOYGAN LAKESH 1600   65     170/ 17/ 18 1021.5F
PORT WASHINGTON  1540   71     180/  6/  8 1022.4S
ATWATER BUOY     1600   70 63  170/ 10/ 12   N/A
MILWAUKEE LAKESH 1610   75     210/ 11/ 13   N/A
S MID LAKE BUOY  1550   73 74  180/ 17/ 21 1022.5R   3/ 5
KENOSHA   LAKESH 1600   71     160/ 13/ 16 1022.0F
$$

TC  - TEMPERATURE IN CELSIUS
VSB - VISIBILITY IN STATUTE MILES
WCI - WIND CHILL INDEX
HX  - HEAT INDEX





USA.gov is the U.S. government's official web portal to all federal, state and local government web resources and services.